Regional Weather Roundup
Issued by NWS

Home | Current Version | Previous Version | Graphics & Text | Print | Product List | Glossary On
Versions: 1 2 3 4 5 6 7 8 9 10 11 12 13 14 15 16 17 18 19 20 21 22 23 24 25 26 27 28 29 30 31 32 33 34 35 36 37 38 39 40 41 42 43 44 45 46 47 48 49 50
000
ASUS43 KDTX 180001
RWRMI
MICHIGAN HOURLY REGIONAL WEATHER ROUNDUP
NATIONAL WEATHER SERVICE DETROIT/PONTIAC MI
700 PM EST WED DEC 17 2014

NOTE: "FAIR" INDICATES FEW OR NO CLOUDS BELOW 12,000 FEET WITH NO
SIGNIFICANT WEATHER AND/OR OBSTRUCTION TO VISIBILITY.

MIZ047>049-052>055-059>063-066>070-074>076-081>083-180100-
SOUTHEAST LOWER MICHIGAN

CITY           SKY/WX    TMP DP  RH WIND       PRES   REMARKS
ADRIAN         CLOUDY    29  20  69 NW15G24   30.17R WCI  18
6HR MIN TEMP:  29; 6HR MAX TEMP:  30;

ALMA           CLOUDY    27  21  77 W12       30.12R WCI  16
ANN ARBOR      CLOUDY    29  19  66 W15G22    30.13R WCI  18
BAD AXE        LGT SNOW  28  26  94 W17G26    30.04R WCI  15
6HR MIN TEMP:  28; 6HR MAX TEMP:  31;

CARO           FLURRIES  28  23  80 W15       30.07R WCI  17
DETROIT CITY   CLOUDY    32  20  61 W13G21    30.12R WCI  22
6HR MIN TEMP:  32; 6HR MAX TEMP:  34;

DETROIT        FLURRIES  30  18  60 W17       30.14R WCI  18
6HR MIN TEMP:  30; 6HR MAX TEMP:  32; 6HR PCP: TRACE;

FLINT          CLOUDY    29  19  66 W17G24    30.12R WCI  17
6HR MIN TEMP:  29; 6HR MAX TEMP:  31;

GROSSE ILE     CLOUDY    30  19  64 W17       30.13R WCI  18
HILLSDALE      CLOUDY    28  21  74 NW12G22   30.14R WCI  18
6HR MIN TEMP:  28; 6HR MAX TEMP:  29;

HOWELL         CLOUDY    27  20  74 W16G22    30.12R WCI  15

CITY           SKY/WX    TMP DP  RH WIND       PRES   REMARKS
JACKSON        CLOUDY    27  20  75 W8        30.14R WCI  19
6HR MIN TEMP:  27; 6HR MAX TEMP:  30;

LAMBERTVILLE   CLOUDY    32  21  64 W10G18    30.17R WCI  24
LANSING        CLOUDY    27  19  72 W10       30.15R WCI  17
6HR MIN TEMP:  26; 6HR MAX TEMP:  30; 6HR PCP: TRACE;

LAPEER         CLOUDY    28  21  75 W10       30.08R WCI  19
MASON          CLOUDY    27  19  71 W14G21    30.14R WCI  15
MONROE         CLOUDY    30  21  69 W18G24    30.14R WCI  18
MT. CLEMENS    FLURRIES  30  20  68 W17G23    30.08R WCI  18
6HR MIN TEMP:  30; 6HR MAX TEMP:  32; 6HR PCP: TRACE;

PONTIAC        FLURRIES  27  18  69 W17G26    30.09R WCI  14
6HR MIN TEMP:  27; 6HR MAX TEMP:  29; 6HR PCP: TRACE;

PORT HOPE        N/A     29  25  85 W10G23    29.99R WCI  20
6HR MIN TEMP:  29; 6HR MAX TEMP:  32; 6HR PCP:  0.06;

PORT HURON     CLOUDY    28  21  74 W9G16     30.09R WCI  20
TRI CITIES     CLOUDY    29  21  72 W16G23    30.10R WCI  17
6HR MIN TEMP:  29; 6HR MAX TEMP:  32;

TROY           CLOUDY    31  21  65 W15G25    30.13R WCI  20
SAGINAW HB     PTCLDY    30  23  74 W15       30.09R WCI  19
$$
MIZ043>046-050>051-056>058-064>065-071>073-077>080-180100-
SOUTHWEST LOWER MICHIGAN

CITY           SKY/WX    TMP DP  RH WIND       PRES   REMARKS
BATTLE CREEK   CLOUDY    29  18  63 W13       30.17R WCI  19
6HR MIN TEMP:  29; 6HR MAX TEMP:  30; 6HR PCP: TRACE;

BENTON HARBOR  CLOUDY    28  19  69 W12       30.22R WCI  18
6HR MIN TEMP:  27; 6HR MAX TEMP:  28;

BIG RAPIDS     CLOUDY    27  25  94 W8        30.11R WCI  18
6HR MIN TEMP:  26; 6HR MAX TEMP:  28;

COLDWATER      CLOUDY    28  21  75 W10G20    30.17R WCI  18
6HR MIN TEMP:  28; 6HR MAX TEMP:  28;

FREMONT        CLOUDY    28  21  75 W12       30.15R WCI  17
HOLLAND        CLOUDY    31  20  63 NW14      30.19R WCI  21
6HR MIN TEMP:  30; 6HR MAX TEMP:  31; 6HR PCP: TRACE;

GRAND RAPIDS   FLURRIES  27  18  69 W12       30.17R WCI  17
6HR MIN TEMP:  27; 6HR MAX TEMP:  30; 6HR PCP: TRACE;

IONIA          CLOUDY    28  19  70 W12       30.14R WCI  18
KALAMAZOO      CLOUDY    28  19  69 W10       30.18R WCI  19
6HR MIN TEMP:  28; 6HR MAX TEMP:  30; 6HR PCP: TRACE;

LUDINGTON      CLOUDY    31  24  75 NW8G16    30.16R WCI  23
6HR MIN TEMP:  28; 6HR MAX TEMP:  31;

MARSHALL       CLOUDY    27  19  70 W14G20    30.15R WCI  16
MOUNT PLEASANT MOCLDY    26  21  80 W10G16    30.09R WCI  17
6HR MIN TEMP:  26; 6HR MAX TEMP:  30;

MUSKEGON       FLURRIES  30  19  63 NW9       30.18R WCI  22
6HR MIN TEMP:  28; 6HR MAX TEMP:  30; 6HR PCP: TRACE;

SOUTH HAVEN    CLOUDY    30  19  64 NW13G20   30.21R WCI  20
$$
MIZ016>042-180100-
NORTHERN LOWER MICHIGAN

CITY           SKY/WX    TMP DP  RH WIND       PRES   REMARKS
ALPENA         LGT SNOW  26  23  88 NW10      30.02R FOG     WCI  16
6HR MIN TEMP:  26; 6HR MAX TEMP:  30; 6HR PCP:  0.04;

BEAVER ISLAND  LGT SNOW  27  24  89 N9        30.08R WCI  18
6HR MIN TEMP:  27; 6HR MAX TEMP:  28;

BELLAIRE       LGT SNOW  29  26  91 NW6       30.08R WCI  22
6HR MIN TEMP:  29; 6HR MAX TEMP:  31;

CADILLAC       CLOUDY    26  23  89 W13       30.05R WCI  15
CHARLEVOIX     LGT SNOW  28  26  91 NW13G21   30.10R WCI  18
6HR MIN TEMP:  28; 6HR MAX TEMP:  29;

FRANKFORT      CLOUDY    31  26  83 NW12G20   30.11S WCI  21
GAYLORD        LGT SNOW  25  22  88 NW9       30.01R FOG     WCI  15
6HR MIN TEMP:  25; 6HR MAX TEMP:  27; 6HR PCP:  0.03;

GRAYLING       LGT SNOW  28  26  89 NW9G18    30.02R WCI  19
6HR MIN TEMP:  28; 6HR MAX TEMP:  28;

HARBOR SPRINGS LGT SNOW  26  23  87 NW6       30.06R WCI  20
HOUGHTON LAKE  LGT SNOW  26  23  88 W12       30.03R FOG     WCI  16
6HR MIN TEMP:  25; 6HR MAX TEMP:  28; 6HR PCP:  0.09;

MANISTEE       CLOUDY    28  21  74 NW18G24   30.14R WCI  16
OSCODA         LGT SNOW  29  27  92 W12       30.01R WCI  19
PELLSTON       LGT SNOW  26  23  88 NW12      30.06R FOG     WCI  16
6HR MIN TEMP:  26; 6HR MAX TEMP:  28; 6HR PCP:  0.02;

ROGERS CITY    LGT SNOW  27  25  94 NW10G17   30.04R WCI  17
TRAVERSE CITY  LGT SNOW  30  27  88 NW13      30.08R FOG     WCI  20
6HR MIN TEMP:  29; 6HR MAX TEMP:  31; 6HR PCP:  0.01;

$$
MIZ007>008-015-180100-
EASTERN UPPER MICHIGAN

CITY           SKY/WX    TMP DP  RH WIND       PRES   REMARKS
KINROSS        CLOUDY    21  21 100 N10       30.05R WCI  10
6HR MIN TEMP:  21; 6HR MAX TEMP:  25; 6HR PCP:  0.01;

MACKINAC ISLAN CLOUDY    26  25  97 N12G20    30.05R WCI  15
6HR MIN TEMP:  26; 6HR MAX TEMP:  27; 6HR PCP:  0.02;

NEWBERRY       CLOUDY    24  23  96 N10G16    30.08R WCI  13
6HR MIN TEMP:  24; 6HR MAX TEMP:  24;

S. S. MARIE    FLURRIES  22  16  78 N7        30.04F WCI  13
6HR MIN TEMP:  22; 6HR MAX TEMP:  25; 6HR PCP:  0.03;

$$
MIZ004>006-011>014-085-180100-
CENTRAL UPPER MICHIGAN

CITY           SKY/WX    TMP DP  RH WIND       PRES   REMARKS
MANISTIQUE     CLOUDY    27  25  92 N15G22    30.10R WCI  15
6HR MIN TEMP:  26; 6HR MAX TEMP:  28;

ESCANABA       CLOUDY    28  21  74 N10G17    30.14R WCI  19
6HR MIN TEMP:  27; 6HR MAX TEMP:  28;

MENOMINEE      CLOUDY    27  19  74 NW6       30.17R WCI  20
6HR MIN TEMP:  25; 6HR MAX TEMP:  28;

SAWYER-GWINN   CLOUDY    25  23  93 N18G28    30.13R WCI  11
$$
MIZ001>003-009>011-084-180100-
WESTERN UPPER MICHIGAN

CITY           SKY/WX    TMP DP  RH WIND       PRES   REMARKS
IRON MOUNTAIN  CLOUDY    24  19  81 NW13      30.15R WCI  12
6HR MIN TEMP:  24; 6HR MAX TEMP:  26; 6HR PCP: TRACE;

HOUGHTON       CLOUDY    24  18  77 N10       30.21R WCI  14
6HR MIN TEMP:  23; 6HR MAX TEMP:  24; 6HR PCP: TRACE;

COPPER HARBOR    N/A     28  21  75 E18       30.24R WCI  15
6HR MIN TEMP:  27; 6HR MAX TEMP:  28; 6HR PCP:  0.01;

IRONWOOD       CLOUDY    21  19  93 N7        30.23R WCI  13
6HR MIN TEMP:  18; 6HR MAX TEMP:  23;

$$

ABBREVIATIONS USED IN REMARKS
   TC - TEMPERATURE IN CELSIUS
  WCI - WIND CHILL INDEX
   HX - HEAT INDEX
  VSB - VISIBILITY




USA.gov is the U.S. government's official web portal to all federal, state and local government web resources and services.